INMARSAT 3-F1

Last updated on Thu Nov 21 2024 00:02:40 GMT+0000 (Coordinated Universal Time)

1 23839U 96020A 24324.67774391 -.00000357 00000+0 00000+0 0 9995 2 23839 9.3950 51.6381 0008530 178.3025 203.2143 0.99995935104513
UTC large
Height (km)
Speed (km/s)
/
Latitude / Longitude
Inclination (degrees)
Orbital Period (minutes)
Azimuth
Elevation
Range (km)
Doppler Factor

Next 0 passes for location: London (51.5072 / 0.1276)

Sorry there are no passes over London.